When you browse on this site, cookies collect data to enhance your experience and personalize the content and advertising you see.
Visit our Privacy Policy to learn more. By continuing to use the site, you agree to this use of cookies and data.
  • In Denmark
  • List of Countries
  • For 7 days
  • Water Temperature
  • Satellite Maps
  • Weather Map
  • Weather Widgets
  • user-avatar
    Login

    Hourly Weather Carmarthen

    Today, 23 April, Tuesday

    Time Temperature Precipitation Wind Pressure Humidity
    00:00 +10°C° 0.2 mm 5 mps 748 mmHg 90%
    01:00 +10°C° 0 mm 5 mps 747 mmHg 91%
    02:00 +9°C° 0 mm 5 mps 747 mmHg 93%
    03:00 +9°C° 0 mm 5 mps 747 mmHg 94%
    04:00 +10°C° 0 mm 4 mps 747 mmHg 94%
    05:00 +10°C° 0 mm 4 mps 747 mmHg 94%
    06:00 +10°C° 0 mm 4 mps 747 mmHg 94%
    07:00 +11°C° 0 mm 4 mps 747 mmHg 90%
    08:00 +12°C° 0 mm 4 mps 747 mmHg 87%
    09:00 +13°C° 0 mm 4 mps 746 mmHg 83%
    10:00 +14°C° 0 mm 5 mps 746 mmHg 80%
    11:00 +14°C° 0 mm 5 mps 746 mmHg 77%
    12:00 +15°C° 0 mm 5 mps 746 mmHg 74%
    13:00 +15°C° 0 mm 5 mps 745 mmHg 72%
    14:00 +16°C° 0 mm 6 mps 745 mmHg 71%
    15:00 +17°C° 0 mm 6 mps 745 mmHg 70%
    16:00 +17°C° 0 mm 6 mps 744 mmHg 72%
    17:00 +16°C° 0 mm 6 mps 744 mmHg 74%
    18:00 +16°C° 0 mm 7 mps 744 mmHg 76%
    19:00 +15°C° 0 mm 7 mps 744 mmHg 76%
    20:00 +14°C° 0 mm 7 mps 744 mmHg 76%
    21:00 +13°C° 0 mm 8 mps 744 mmHg 77%
    22:00 +12°C° 0 mm 8 mps 744 mmHg 78%
    23:00 +11°C° 0 mm 8 mps 744 mmHg 79%

    Tomorrow, 24 April, Wednesday

    Time Temperature Precipitation Wind Pressure Humidity
    00:00 +10°C° 0 mm 8 mps 744 mmHg 80%
    01:00 +10°C° 0 mm 8 mps 744 mmHg 82%
    02:00 +9°C° 0 mm 8 mps 743 mmHg 85%
    03:00 +9°C° 0 mm 7 mps 743 mmHg 87%
    04:00 +9°C° 0 mm 8 mps 742 mmHg 88%
    05:00 +9°C° 0 mm 8 mps 742 mmHg 88%
    06:00 +9°C° 0 mm 8 mps 742 mmHg 89%
    07:00 +9°C° 0 mm 8 mps 742 mmHg 87%
    08:00 +10°C° 0 mm 9 mps 742 mmHg 86%
    09:00 +10°C° 0 mm 9 mps 741 mmHg 85%
    10:00 +11°C° 0 mm 9 mps 741 mmHg 82%
    11:00 +12°C° 0 mm 9 mps 740 mmHg 79%
    12:00 +13°C° 0 mm 9 mps 740 mmHg 76%
    13:00 +13°C° 0.1 mm 9 mps 739 mmHg 81%
    14:00 +12°C° 0.1 mm 9 mps 739 mmHg 85%
    15:00 +11°C° 0.1 mm 8 mps 739 mmHg 89%
    16:00 +11°C° 1.2 mm 8 mps 738 mmHg 91%
    17:00 +11°C° 1.2 mm 9 mps 738 mmHg 94%
    18:00 +10°C° 1.2 mm 9 mps 738 mmHg 96%
    19:00 +9°C° 0.1 mm 8 mps 739 mmHg 96%
    20:00 +9°C° 0.1 mm 7 mps 739 mmHg 96%
    21:00 +8°C° 0.1 mm 6 mps 740 mmHg 96%
    22:00 +8°C° 0.1 mm 5 mps 740 mmHg 96%
    23:00 +8°C° 0.1 mm 5 mps 741 mmHg 96%

    Day after tomorrow, 25 April, Thursday

    Time Temperature Precipitation Wind Pressure Humidity
    00:00 +8°C° 0.1 mm 5 mps 741 mmHg 96%
    01:00 +7°C° 0.2 mm 5 mps 741 mmHg 97%
    02:00 +7°C° 0.2 mm 4 mps 741 mmHg 97%
    03:00 +7°C° 0.2 mm 4 mps 741 mmHg 97%
    04:00 +7°C° 0 mm 4 mps 741 mmHg 97%
    05:00 +7°C° 0 mm 5 mps 741 mmHg 97%
    06:00 +7°C° 0 mm 5 mps 741 mmHg 97%
    07:00 +7°C° 0.1 mm 6 mps 741 mmHg 94%
    08:00 +8°C° 0.1 mm 7 mps 741 mmHg 92%
    09:00 +9°C° 0.1 mm 8 mps 741 mmHg 89%
    10:00 +9°C° 0.5 mm 7 mps 741 mmHg 88%
    11:00 +10°C° 0.5 mm 7 mps 742 mmHg 86%
    12:00 +10°C° 0.5 mm 6 mps 742 mmHg 85%
    13:00 +11°C° 0 mm 6 mps 742 mmHg 80%
    14:00 +11°C° 0 mm 6 mps 742 mmHg 74%
    15:00 +13°C° 0 mm 6 mps 742 mmHg 69%
    16:00 +12°C° 0 mm 5 mps 742 mmHg 73%
    17:00 +12°C° 0 mm 5 mps 743 mmHg 77%
    18:00 +10°C° 0 mm 5 mps 743 mmHg 81%
    19:00 +8°C° 0 mm 5 mps 744 mmHg 84%
    20:00 +7°C° 0 mm 5 mps 745 mmHg 88%
    21:00 +6°C° 0 mm 4 mps 745 mmHg 92%
    22:00 +5°C° 0 mm 4 mps 745 mmHg 92%
    23:00 +5°C° 0 mm 3 mps 746 mmHg 92%

    26 April, Friday

    Time Temperature Precipitation Wind Pressure Humidity
    00:00 +6°C° 0 mm 2 mps 746 mmHg 92%
    01:00 +5°C° 0 mm 2 mps 746 mmHg 92%
    02:00 +5°C° 0 mm 2 mps 746 mmHg 92%
    03:00 +5°C° 0 mm 2 mps 746 mmHg 92%
    04:00 +5°C° 0 mm 2 mps 747 mmHg 92%
    05:00 +6°C° 0 mm 2 mps 747 mmHg 93%
    06:00 +6°C° 0 mm 2 mps 747 mmHg 93%
    07:00 +8°C° 0 mm 2 mps 748 mmHg 89%
    08:00 +10°C° 0 mm 2 mps 748 mmHg 84%
    09:00 +12°C° 0 mm 2 mps 748 mmHg 80%
    10:00 +13°C° 0 mm 2 mps 749 mmHg 75%
    11:00 +14°C° 0 mm 1 mps 749 mmHg 70%
    12:00 +15°C° 0 mm 1 mps 750 mmHg 65%
    13:00 +13°C° 0.4 mm 3 mps 750 mmHg 73%
    14:00 +10°C° 0.4 mm 5 mps 751 mmHg 81%
    15:00 +9°C° 0.4 mm 6 mps 752 mmHg 88%
    16:00 +8°C° 0.3 mm 7 mps 752 mmHg 87%
    17:00 +6°C° 0.3 mm 8 mps 753 mmHg 85%
    18:00 +5°C° 0.3 mm 9 mps 754 mmHg 83%
    19:00 +4°C° 0 mm 8 mps 755 mmHg 83%
    20:00 +3°C° 0 mm 7 mps 755 mmHg 82%
    21:00 +2°C° 0 mm 7 mps 756 mmHg 81%
    22:00 +2°C° 0 mm 6 mps 757 mmHg 82%
    23:00 +1°C° 0 mm 6 mps 757 mmHg 83%

    27 April, Saturday

    Time Temperature Precipitation Wind Pressure Humidity
    00:00 +1°C° 0 mm 5 mps 758 mmHg 84%
    01:00 +1°C° 0 mm 5 mps 758 mmHg 86%
    02:00 0°C° 0 mm 5 mps 758 mmHg 89%
    03:00 0°C° 0 mm 4 mps 758 mmHg 92%
    04:00 0°C° 0 mm 4 mps 759 mmHg 92%
    05:00 0°C° 0 mm 4 mps 759 mmHg 92%
    06:00 +1°C° 0 mm 4 mps 759 mmHg 93%
    07:00 +4°C° 0 mm 4 mps 760 mmHg 85%
    08:00 +6°C° 0 mm 5 mps 760 mmHg 77%
    09:00 +7°C° 0 mm 5 mps 761 mmHg 69%
    10:00 +8°C° 0 mm 5 mps 761 mmHg 66%
    11:00 +8°C° 0 mm 5 mps 762 mmHg 62%
    12:00 +10°C° 0 mm 4 mps 762 mmHg 59%
    13:00 +10°C° 0 mm 4 mps 762 mmHg 58%
    14:00 +10°C° 0 mm 3 mps 762 mmHg 58%
    15:00 +12°C° 0 mm 2 mps 763 mmHg 57%
    16:00 +10°C° 0 mm 2 mps 763 mmHg 62%
    17:00 +10°C° 0 mm 3 mps 763 mmHg 67%
    18:00 +10°C° 0 mm 3 mps 763 mmHg 72%
    19:00 +9°C° 0.1 mm 3 mps 763 mmHg 77%
    20:00 +7°C° 0.1 mm 4 mps 763 mmHg 82%
    21:00 +6°C° 0.1 mm 4 mps 763 mmHg 87%
    22:00 +7°C° 0.2 mm 6 mps 763 mmHg 89%
    23:00 +6°C° 0.2 mm 7 mps 762 mmHg 91%

    28 April, Sunday

    Time Temperature Precipitation Wind Pressure Humidity
    00:00 +6°C° 0.2 mm 8 mps 761 mmHg 92%
    01:00 +7°C° 0.1 mm 8 mps 761 mmHg 93%
    02:00 +7°C° 0.1 mm 8 mps 761 mmHg 93%
    03:00 +9°C° 0.1 mm 8 mps 760 mmHg 94%
    04:00 +9°C° 0 mm 7 mps 761 mmHg 94%
    05:00 +9°C° 0 mm 7 mps 761 mmHg 94%
    06:00 +9°C° 0 mm 6 mps 761 mmHg 94%
    07:00 +10°C° 0 mm 6 mps 761 mmHg 91%
    08:00 +11°C° 0 mm 6 mps 761 mmHg 87%
    09:00 +13°C° 0 mm 6 mps 761 mmHg 84%
    10:00 +14°C° 0 mm 6 mps 761 mmHg 83%
    11:00 +14°C° 0 mm 6 mps 761 mmHg 83%
    12:00 +14°C° 0 mm 7 mps 761 mmHg 82%
    13:00 +14°C° 0 mm 7 mps 761 mmHg 84%
    14:00 +14°C° 0 mm 7 mps 760 mmHg 85%
    15:00 +14°C° 0 mm 7 mps 760 mmHg 87%
    16:00 +14°C° 0 mm 7 mps 760 mmHg 86%
    17:00 +14°C° 0 mm 7 mps 759 mmHg 85%
    18:00 +13°C° 0 mm 8 mps 759 mmHg 85%
    19:00 +12°C° 0 mm 8 mps 759 mmHg 87%
    20:00 +11°C° 0 mm 7 mps 758 mmHg 89%
    21:00 +10°C° 0 mm 7 mps 758 mmHg 91%
    22:00 +10°C° 0.1 mm 7 mps 758 mmHg 92%
    23:00 +10°C° 0.1 mm 7 mps 757 mmHg 93%
    Show more